OPS 2222

导读 | 豆包AI

OPS 2222是美国于1968年8月6日在范登堡发射场,依托SLV-3A Atlas-Agena D运载火箭送入预定轨道的军用卫星,隶属于Canyon系列电子侦察项目。作为该系列首颗任务卫星,其主要承担无线电信号截获与战略情报收集任务,标志着冷战时期美国天基电子侦察体系初步成型,对美国全球战略监测能力提升有重要意义。

基本信息
目录编号:
3334
目录名称:
OPS 2222
国际标识:
1968-063A
轨道中心:
EARTH
卫星名称:
OPS 2222
卫星全名:
--
卫星状态:
在轨 (已飞行21087 天)
发射日期:
1968-08-06 UTC
国别 :
美国 (US)
星等 :
--
轨道信息
数据来源 国际轨道数据 AOE轨道数据
星历时间 2026-05-01T06:16:05+0800
10小时前
查看轨道信息
2026-05-01T06:00:00+0800
10小时前
查看轨道信息
半长轴 42453.26km 42453.203km
偏心率 0.0895871 0.089584
轨道倾角 6.038° 6.038°
近地点辐角 230.603° 230.610°
升交点赤经 282.627° 282.623°
平近点角 96.184° 92.192°
近地点 32271.858km 32271.938km
远地点 39878.388km 39878.194km
周期 1450.863分钟 1450.860分钟
每日圈数 0.992513 0.992515
详细信息
使用方式:
暂无
2D轨道图
3D轨道图
轨道高度分析图
轨道倾角分析图
轨道综合分析图
查看轨道综合分析图